EW0362 Weather Reports


Display with metric or nautical units.
time (UTC)temp
F
wind
direction
speed
MPH
gust
MPH
rain 1hr
in
rain 24hr
in
rain mn
in
humidity
%
barometer
mb
20260906152702 64 271 0.0 2.0 0.00 0.06 0.06 89 1015.3
20260906152203 64 271 0.0 2.0 0.00 0.06 0.06 88 1015.3
20260906151703 63 266 0.0 2.0 0.00 0.06 0.06 90 1015.3
20260906145702 63 285 0.0 0.0 0.00 0.06 0.06 91 1015.6
20260906145203 63 285 0.0 1.0 0.00 0.06 0.06 91 1015.5
20260906144702 63 285 1.0 2.0 0.00 0.06 0.06 91 1015.6
20260906144203 63 141 1.0 2.0 0.00 0.06 0.06 90 1015.6
20260906143703 63 120 0.0 2.0 0.00 0.06 0.06 90 1015.6
20260906143203 62 121 0.0 1.0 0.00 0.06 0.06 90 1015.6
20260906141203 62 98 0.0 1.0 0.00 0.06 0.06 92 1015.6
20260906135203 61 98 0.0 1.0 0.00 0.06 0.06 94 1015.6
20260906133703 61 58 0.0 2.0 0.00 0.06 0.06 94 1015.5
20260906130703 60 59 1.0 2.0 0.00 0.06 0.06 97 1015.4
20260906125703 60 57 0.0 0.0 0.00 0.06 0.06 98 1015.4
20260906122702 60 57 0.0 0.0 0.00 0.06 0.06 98 1015.5
20260906122203 60 57 0.0 0.0 0.00 0.06 0.06 98 1015.4
20260906121702 59 57 0.0 0.0 0.00 0.06 0.06 98 1015.5
20260906115702 59 57 0.0 1.0 0.00 0.06 0.06 97 1015.3
20260906114702 58 57 0.0 0.0 0.00 0.06 0.06 97 1015.3
20260906112703 58 57 0.0 0.0 0.01 0.06 0.06 97 1015.1
20260906112204 58 57 0.0 0.0 0.01 0.06 0.06 96 1015.0
20260906110704 58 57 0.0 0.0 0.01 0.06 0.06 96 1014.8
20260906110203 58 57 0.0 0.0 0.01 0.06 0.06 96 1014.8
20260906105704 58 57 0.0 0.0 0.01 0.06 0.06 96 1014.7
20260906104704 58 57 0.0 0.0 0.01 0.06 0.06 96 1014.7
20260906103704 58 57 0.0 0.0 0.00 0.05 0.05 96 1014.5
20260906103203 58 57 0.0 0.0 0.00 0.05 0.05 96 1014.4
20260906102704 58 57 0.0 0.0 0.00 0.05 0.05 96 1014.3
20260906102203 58 57 0.0 0.0 0.00 0.05 0.05 96 1014.2
20260906101204 58 57 0.0 0.0 0.00 0.05 0.05 96 1014.2
20260906100704 58 57 0.0 0.0 0.00 0.05 0.05 96 1014.2
20260906094704 59 57 0.0 0.0 0.00 0.05 0.05 96 1014.0
20260906092704 59 57 0.0 1.0 0.02 0.05 0.05 95 1013.8
20260906092203 59 57 0.0 0.0 0.03 0.05 0.05 96 1013.7
20260906091704 59 57 0.0 0.0 0.03 0.05 0.05 96 1013.8
20260906090704 59 57 0.0 0.0 0.04 0.05 0.05 96 1013.8
20260906084703 60 57 0.0 0.0 0.04 0.05 0.05 95 1013.8
20260906083704 60 57 0.0 1.0 0.03 0.04 0.04 96 1013.7
20260906083203 60 57 0.0 0.0 0.03 0.04 0.04 96 1014.0
20260906082703 60 57 0.0 1.0 0.02 0.03 0.03 95 1013.9
20260906081703 60 57 0.0 0.0 0.01 0.02 0.02 95 1013.4
20260906074704 60 57 0.0 0.0 0.00 0.01 0.01 95 1013.5
20260906074204 61 57 0.0 0.0 0.00 0.01 0.01 95 1013.3
20260906073703 61 57 0.0 0.0 0.00 0.01 0.01 95 1013.2
20260906072703 61 57 0.0 0.0 0.00 0.01 0.01 95 1013.1
20260906072204 61 57 0.0 0.0 0.00 0.01 0.01 95 1013.1
20260906071203 61 57 0.0 0.0 0.01 0.01 0.01 95 1013.0
20260906070704 61 57 0.0 0.0 0.01 0.01 0.01 95 1013.0
20260906070203 61 57 0.0 0.0 0.01 0.01 0.01 95 1013.1
20260906063704 62 57 0.0 0.0 0.01 0.01 0.01 95 1012.9
20260906062703 62 57 0.0 0.0 0.01 0.01 0.01 95 1012.9
20260906062203 62 57 0.0 0.0 0.01 0.01 0.01 95 1012.8
20260906061204 62 56 0.0 0.0 0.00 0.00 0.00 96 1013.0
20260906060703 62 56 0.0 0.0 0.00 0.00 0.00 96 1013.1
20260906055204 62 56 0.0 0.0 0.00 0.00 0.00 96 1012.9
20260906054704 62 56 0.0 0.0 0.00 0.00 0.00 96 1012.9
20260906054203 63 56 0.0 0.0 0.00 0.00 0.00 96 1012.9
20260906053704 63 56 0.0 0.0 0.00 0.00 0.00 96 1012.9
20260906052703 63 56 0.0 0.0 0.00 0.00 0.00 96 1012.9
20260906052204 63 56 0.0 0.0 0.00 0.00 0.00 96 1013.0
20260906051204 63 56 0.0 0.0 0.00 0.00 0.00 95 1013.0
20260906045704 63 56 0.0 0.0 0.00 0.00 0.00 95 1013.1
20260906045204 63 56 0.0 0.0 0.00 0.00 0.00 95 1013.1
20260906044704 63 56 0.0 0.0 0.00 0.00 0.00 95 1013.1
20260906044204 63 56 0.0 0.0 0.00 0.00 0.00 95 1013.0
20260906043203 63 56 0.0 0.0 0.00 0.00 0.00 95 1013.0
20260906042205 63 56 0.0 0.0 0.00 0.00 0.00 95 1013.0
20260906041205 63 56 0.0 0.0 0.00 0.00 0.00 95 1013.0
20260906035705 63 56 0.0 0.0 0.00 0.00 0.00 95 1013.0
20260906035205 63 56 0.0 0.0 0.00 0.00 0.00 95 1013.0
20260906034705 63 56 0.0 0.0 0.00 0.00 0.00 95 1013.0
20260906033705 63 56 0.0 0.0 0.00 0.00 0.00 95 1012.9
20260906032705 63 56 0.0 0.0 0.00 0.00 0.00 95 1012.9
20260906032205 63 56 0.0 0.0 0.00 0.00 0.00 95 1012.8
20260906030705 63 56 0.0 0.0 0.00 0.00 0.00 95 1012.7
20260906025704 63 56 0.0 0.0 0.00 0.00 0.00 95 1012.8
20260906025204 63 56 0.0 0.0 0.00 0.00 0.00 95 1012.7
20260906024705 63 56 0.0 0.0 0.00 0.00 0.00 95 1012.7
20260906024204 63 56 0.0 0.0 0.00 0.00 0.00 95 1012.8
20260906022705 63 56 0.0 0.0 0.00 0.00 0.00 94 1012.7
20260906022205 63 56 0.0 0.0 0.00 0.00 0.00 94 1012.6
20260906021205 63 56 0.0 0.0 0.00 0.00 0.00 94 1012.6
20260906020704 63 56 0.0 0.0 0.00 0.00 0.00 94 1012.6
20260906020205 63 56 0.0 0.0 0.00 0.00 0.00 94 1012.7
20260906015204 64 56 0.0 0.0 0.00 0.00 0.00 94 1012.7
20260906014204 64 56 0.0 0.0 0.00 0.00 0.00 94 1012.8
20260906013704 64 56 0.0 0.0 0.00 0.00 0.00 94 1012.8
20260906011704 64 56 0.0 0.0 0.00 0.00 0.00 94 1012.8
20260906005205 64 56 0.0 0.0 0.00 0.00 0.00 93 1012.6
20260906004704 64 56 0.0 0.0 0.00 0.00 0.00 93 1012.6
20260906004204 64 56 0.0 0.0 0.00 0.00 0.00 93 1012.6
20260906002204 64 56 0.0 0.0 0.00 0.00 0.00 92 1012.3
20260906001705 64 56 0.0 0.0 0.00 0.00 0.00 92 1012.3
20260906001205 64 56 0.0 0.0 0.00 0.00 0.00 92 1012.3
20260905235705 65 56 0.0 0.0 0.00 0.00 0.00 92 1012.2
20260905235205 65 56 0.0 0.0 0.00 0.00 0.00 91 1012.2
20260905232704 65 56 0.0 0.0 0.00 0.00 0.00 91 1012.0
20260905232204 65 56 0.0 0.0 0.00 0.00 0.00 91 1012.0
20260905231705 65 56 0.0 0.0 0.00 0.00 0.00 91 1011.9
20260905230704 65 56 0.0 0.0 0.00 0.00 0.00 90 1011.9
20260905230205 65 56 0.0 0.0 0.00 0.00 0.00 90 1011.9
20260905224705 66 56 0.0 0.0 0.00 0.00 0.00 90 1011.7
20260905223704 66 56 0.0 0.0 0.00 0.00 0.00 90 1011.7
20260905220705 66 53 0.0 0.0 0.00 0.00 0.00 89 1011.6
20260905215706 66 53 1.0 3.0 0.00 0.00 0.00 87 1011.4
20260905214204 66 83 0.0 1.0 0.00 0.00 0.00 88 1011.1
20260905211705 66 35 0.0 2.0 0.00 0.00 0.00 89 1010.8
20260905211205 66 51 1.0 5.0 0.00 0.00 0.00 88 1010.8
20260905210705 66 17 0.0 0.0 0.00 0.00 0.00 89 1010.7
20260905210205 66 17 1.0 2.0 0.00 0.00 0.00 88 1010.7
20260905205205 67 70 1.0 3.0 0.00 0.00 0.00 87 1010.7
20260905204205 67 230 0.0 2.0 0.00 0.00 0.00 86 1010.7
20260905203705 68 45 1.0 8.0 0.00 0.00 0.00 84 1010.7
20260905202204 69 119 1.0 3.0 0.00 0.00 0.00 80 1010.8
20260905200704 72 45 2.0 12.0 0.00 0.00 0.00 77 1010.3
20260905195707 73 340 1.0 2.0 0.00 0.00 0.00 80 1009.9
20260905193204 73 59 0.0 1.0 0.00 0.00 0.00 77 1009.8
20260905192705 73 56 2.0 5.0 0.00 0.00 0.00 74 1009.8
20260905192204 73 25 1.0 3.0 0.00 0.00 0.00 74 1009.8
20260905191205 73 65 1.0 3.0 0.00 0.00 0.00 78 1009.7
20260905184204 72 67 0.0 0.0 0.00 0.00 0.00 79 1009.8
20260905182704 72 130 1.0 2.0 0.00 0.00 0.00 76 1009.8
20260905181205 72 110 1.0 7.0 0.00 0.00 0.00 75 1009.8
20260905180205 72 69 1.0 2.0 0.00 0.00 0.00 75 1009.9
20260905175204 72 227 1.0 3.0 0.00 0.00 0.00 75 1009.9
20260905174704 72 209 0.0 3.0 0.00 0.00 0.00 75 1009.8
20260905171704 73 52 0.0 5.0 0.00 0.00 0.00 76 1009.6
20260905170705 73 264 0.0 2.0 0.00 0.00 0.00 74 1009.5
20260905170204 73 338 1.0 3.0 0.00 0.00 0.00 73 1009.6
20260905165204 73 22 1.0 5.0 0.00 0.00 0.00 76 1009.6
20260905164204 72 245 1.0 5.0 0.00 0.00 0.00 75 1009.5
20260905163704 72 43 1.0 3.0 0.00 0.00 0.00 77 1009.6
20260905162704 72 74 1.0 7.0 0.00 0.00 0.00 76 1009.6
20260905162205 71 251 1.0 2.0 0.00 0.00 0.00 78 1009.7
20260905161204 71 80 0.0 2.0 0.00 0.00 0.00 80 1009.8
20260905154705 71 62 1.0 2.0 0.00 0.00 0.00 79 1009.8
20260905153704 71 39 0.0 3.0 0.00 0.00 0.00 81 1009.8